SL-14 DEB, 45292

Orbit data source: Space-Track

SL-14 DEB, 45292 is space debris in LEO originally from a launch on Thu, 15 Aug 1991 UTC launched from the Plesetsk Missile And Space Complex (PKMTR). Debris objects in space refer to the collection of defunct objects orbiting the Earth. Examples of debris include non-operational satellites, rocket bodies, and fragments generated from explosions, collisions, or faulty payload assembly.

Loading next visibility...
Identifier
45292, 1991-056AE
Orbit
LEO
Last TLE update
1 day ago
Origin
Manufacturer
Unknown
Mission
Spacecraft
Bus & Motor
Unknown
Mass
Unknown
Launch date (UTC)
1991-08-15 (34 years ago)
Launch vehicle
Unknown
Launch site
Plesetsk Missile And Space Complex (PKMTR)
Object type
Payload
Rocket body
Debris
Shape & HBR
Unknown
Radar Cross Section
Small (<0.1 m²)

Expand to show TLE details & history

TLE from 1 day ago
0 SL-14 DEB
1 45292U 91056AE  25128.23991175  .00004722  00000-0  85723-2 0  9990
2 45292  82.6211  48.8707 0084665 148.6296 211.9930 13.39265531253275
Epoch: 2025-05-08T05:45Z
Definitive object data (Epoch: 2025-05-08T05:45:28.375Z)
Latitude
-0.00001°
Longitude
96.18922°
Altitude
1,168.8 km
Speed
7.243 km/s
True Right ascension
03h 15m 28s
True Declination
0° 00' 00"
Sunlit
Object was in daylight at TLE epoch
Visualization TLE readout
Latitude
25.95418°
Longitude
99.01919°
Altitude
1,146.13 km
Speed
7.267 km/s
Apparent Right ascension
03h 19m 04s
Apparent Declination
-3° 53' 59"
Sunlit
Object is in daylight
Visualization observer readout
Local Sidereal Time
15:08:23
Azimuth
355.475° N
Elevation
-53.903°
Doppler factor
1
Orbital elements
Apogee altitude
1,172.619 km
Perigee altitude
1,045.835 km
Semi-major axis
7,487.364 km
Eccentricity
0.0084665
Inclination
82.6211°
RAAN
48.8707°
Arg. of periapsis
148.6296°
True anomaly
211.48356°
Mean anomaly
211.993°
Eccentric anomaly
211.73782°
Mean motion
3.35004 °/min
BSTAR
0.0085723
Orbital period
107.46 mins
Loading maneuver chart data...
Loading SW <> Apogee altitude chart data...
Loading historical data...
Loading historical data...
Loading historical data...
Loading historical data...
Loading historical data...
Loading historical data...
Loading historical data...

SL-14 DEB Visibility forecast

Observer location: undefined°, undefined°

Span
Click to sort rows by Start time (UTC) header in descending order
Start Az.
Max El. time (UTC)
Max El. Az.
Max El.
End time (UTC)
End Az.
10 mins2025-05-09 07:28:27.967Z329.828° NNW2025-05-09 07:33:27.967Z268.893° W29.465°2025-05-09 07:38:27.967Z212.823° SW
7 mins2025-05-09 17:46:27.967Z108.639° ESE2025-05-09 17:49:27.967Z79.431° E16.731°2025-05-09 17:53:27.967Z43.346° NE
12 mins2025-05-09 19:31:27.967Z194.645° SSW2025-05-09 19:36:27.967Z248.234° W43.689°2025-05-09 19:43:27.967Z3.849° NNE
7 mins2025-05-10 04:59:27.967Z32.412° NE2025-05-10 05:02:27.967Z63.589° ENE18.507°2025-05-10 05:06:27.967Z105.926° ESE
11 mins2025-05-10 06:46:27.967Z344.322° N2025-05-10 06:51:27.967Z282.077° WNW41.89°2025-05-10 06:57:27.967Z188.27° SSW
|